Location: Kresge Environmental Education Center
(43.1138°N, 83.2433°W)
Time: 03:35:13
(UTC-04:00)

Daily predictions for brighter satellites

Satellite Brightness Start Highest point End
(mag) Time Altitude Azimuth Time Altitude Azimuth Time Altitude Azimuth
ADEOS II 4.3 04:16:26 10° NE 04:18:52 22° ENE 04:18:52 22° ENE
USA 267 3.7 04:30:42 10° ESE 04:36:09 55° ENE 04:36:09 55° ENE
Cosmos 2297 Rocket 4.5 04:45:59 10° N 04:50:11 21° NE 04:54:20 10° E
BREEZE-M DEB (TANK) 4.4 04:52:36 34° E 04:52:36 34° E 04:57:37 10° ENE
Cosmos 1943 Rocket 4.2 04:57:49 18° N 04:57:49 18° N 04:59:20 10° N
Meteor 1-16 Rocket 4.5 05:10:49 10° N 05:16:33 68° E 05:22:22 10° SSE
Okean O Rocket 2.8 05:14:12 10° NNE 05:18:23 41° E 05:18:42 40° ESE
CZ-4B R/B 4.4 05:16:43 10° NNE 05:21:55 41° E 05:27:10 10° SSE
Cosmos 1269 Rocket 4.3 05:22:12 46° N 05:23:38 64° ENE 05:28:53 10° SSE
Lacrosse 5 3.9 05:24:59 17° N 05:25:01 17° N 05:28:16 10° NE
Meteor 2-5 Rocket 3.7 05:31:32 44° S 05:33:32 85° E 05:39:20 10° N
Cosmos 1125 Rocket 3.3 05:39:17 81° W 05:39:22 82° WNW 05:44:42 10° NNE
Meteor 2-14 Rocket 4.5 05:35:13 10° N 05:41:19 77° E 05:47:23 10° SSE
SL-8 Rocket 4.0 05:42:00 10° N 05:48:23 86° E 05:54:42 10° S
USA 215 3.9 05:42:34 10° NE 05:48:34 40° NNW 05:50:01 35° NW
SJ 16-02 1.6 05:52:07 56° NNW 05:52:07 56° NNW 05:55:44 10° NNE
PSLV R/B 4.4 05:51:55 10° N 05:54:43 37° NNW 05:54:43 37° NNW
Cosmos 2227 Rocket 2.4 05:52:08 10° NNW 05:57:50 72° ENE 06:03:28 10° SSE
ADEOS II 2.7 05:55:51 10° N 05:59:49 36° NW 05:59:49 36° NW
Milstar 3 4.3 06:01:36 16° SSW 06:03:00 17° SSW 06:07:27 10° SSE
Cosmos 1809 Rocket 4.5 05:58:03 10° NNW 06:03:58 53° W 06:09:54 10° SSW
Cosmos 1048 Rocket 4.2 06:06:32 46° W 06:06:40 46° WSW 06:11:40 10° S
ATLAS 2AS CENTAUR R/B 4.4 05:59:54 10° S 06:06:49 39° ESE 06:14:08 10° NE
USA 116 4.2 06:05:41 10° SSE 06:09:26 63° ENE 06:13:45 10° N
NOSS 3-1 (C) 3.9 06:09:14 35° WNW 06:10:34 39° NW 06:16:44 10° NNE
NOSS 2-3 (E) 4.4 06:09:13 12° SSW 06:13:25 58° ESE 06:18:41 10° NE
Intercosmos 24 3.8 06:09:21 10° NNW 06:13:39 58° W 06:17:11 10° S
Meteor 1-24 Rocket 3.8 06:11:51 10° SSW 06:17:48 66° WNW 06:23:38 10° N
NOSS 3-1 (A) 3.8 06:16:40 33° W 06:18:47 45° NW 06:25:09 10° NNE
Cosmos 2251 Rocket 4.1 06:13:30 10° NNW 06:18:50 59° ENE 06:24:08 10° SSE
Cosmos 1656 4.1 06:13:21 10° S 06:18:58 64° ESE 06:24:36 10° NNE
USA 267 3.6 06:14:05 10° SSE 06:20:15 43° SW 06:23:31 26° WNW
IRS-1C Rocket 4.0 06:17:42 10° N 06:22:57 68° WNW 06:28:10 10° SSW
Cosmos 2218 Rocket 4.0 06:17:04 10° NNW 06:23:14 62° W 06:29:27 10° S
CZ-2C R/B 3.7 06:20:19 10° S 06:25:02 73° WSW 06:29:44 10° NNW
SJ-6F 4.3 06:23:43 10° N 06:27:49 82° WNW 06:31:52 10° SSW
ATLAS 3B R/B 3.8 06:23:09 10° NNW 06:29:29 40° NE 06:35:35 10° ESE
Cosmos 2219 4.3 06:31:24 22° WSW 06:31:24 22° WSW 06:34:48 10° SSW
Meteor 1-31 Rocket 2.8 06:28:23 10° N 06:32:06 54° WNW 06:35:49 10° SSW
In-Cosmos 22 4.3 06:26:59 10° SSW 06:32:33 57° WNW 06:38:14 10° N
Cosmos 2297 Rocket 2.1 06:29:09 10° NNW 06:34:47 71° WSW 06:40:23 10° SSE
KORONAS-FOTON 4.2 06:32:58 10° S 06:36:42 66° E 06:40:29 10° NNE
Cosmos 1607 4.0 06:30:43 10° NNW 06:37:15 87° NE 06:43:43 10° SSE
CZ-4B R/B 4.2 06:34:12 10° N 06:38:36 53° WNW 06:42:58 10° SSW
Cosmos 1697 Rocket 3.1 06:36:14 10° S 06:41:49 66° ESE 06:47:27 10° NNE
Nadezhda 3 Rocket 4.2 06:36:09 10° S 06:42:27 77° E 06:48:42 10° N
Cosmos 1908 3.1 06:39:06 10° NNW 06:42:54 64° W 06:46:41 10° S
MTI 3.8 06:42:23 10° S 06:45:33 54° W 06:48:45 10° NNW
ATLAS CENTAUR R/B 3.0 06:43:19 10° NNW 06:46:40 29° NE 06:50:09 10° ESE
Cosmos 2082 3.7 06:41:08 10° NNW 06:46:41 58° WSW 06:52:11 10° S
Meteor PRIRODA 4.5 06:43:39 10° N 06:46:58 30° WNW 06:49:44 13° SW
NOSS 2-3 (C) 3.8 06:43:26 10° SW 06:48:07 76° NW 06:53:40 10° NE
Landsat 4 4.4 06:49:23 10° SSW 06:52:44 30° W 06:56:06 10° NW
Cosmos 2084 Rocket 3.8 06:50:12 17° WSW 06:53:05 41° NW 06:56:57 10° NNE
EO 1 Del DPAF 3.3 06:50:00 10° S 06:53:46 57° W 06:57:34 10° NNW
Okean O Rocket 2.9 06:51:14 10° NNW 06:54:29 20° WNW 06:56:09 17° W
Cosmos 1980 Rocket 3.2 06:51:59 10° S 06:57:22 51° ESE 07:02:48 10° NE
Cosmos 2221 2.5 06:53:13 10° NNW 06:57:33 60° W 07:01:51 10° S
CZ-2C R/B 3.5 06:53:06 10° NNE 06:58:01 50° E 07:02:59 10° S
Meteor 1-28 Rocket 3.9 06:58:16 10° SSW 07:01:44 33° W 07:05:13 10° NNW
CZ-4B R/B 4.0 06:57:37 10° N 07:02:18 29° WNW 07:07:02 10° WSW
Cosmos 1300 3.2 06:59:08 10° N 07:02:56 64° E 07:06:44 10° SSE
Feng Yun 1-1 Rocket 4.3 06:57:35 10° N 07:03:12 69° WNW 07:08:57 10° SSW
Cosmos 1408 Rocket 4.4 06:59:01 10° S 07:03:13 54° E 07:07:30 10° NNE
PAYLOAD A 3.9 07:03:34 10° NNE 07:08:21 88° E 07:13:14 10° SSW
COSMO-SKYMED 1 2.7 07:04:12 10° S 07:08:26 54° W 07:12:43 10° NNW
USA 238 DEB 4.3 07:01:59 10° NNW 07:09:03 64° NE 07:16:10 10° SE
USA 238 4.3 07:02:05 10° NNW 07:09:09 64° NE 07:16:16 10° SE
Lacrosse 5 3.7 07:05:32 10° NNW 07:09:36 23° NNE 07:13:40 10° ENE
Cosmos 2369 4.1 07:07:17 10° SW 07:12:38 42° WNW 07:18:00 10° NNE
Meteor 1-21 Rocket 4.3 07:11:06 10° SSW 07:16:46 58° WNW 07:22:21 10° N
Okean-O 2.9 07:13:22 10° N 07:17:36 44° WNW 07:21:48 10° SW
Meteor 2-2 Rocket 4.5 07:15:35 10° N 07:21:18 80° E 07:27:06 10° SSE
Cosmos 1726 2.6 07:21:50 10° NNW 07:25:16 38° W 07:28:42 10° SSW
GRACE-2 3.5 07:23:12 10° N 07:25:44 85° W 07:28:16 10° S
Cosmos 1674 4.0 07:25:41 10° WSW 07:28:26 19° WNW 07:31:12 10° NNW
Cosmos 1535 Rocket 4.5 07:22:19 10° NNW 07:28:29 72° W 07:34:43 10° S
Thor Agena Rocket 3.6 07:23:57 10° SSE 07:29:13 83° WSW 07:34:28 10° NNW
OPS 6432 4.3 07:25:46 10° SW 07:29:20 62° NW 07:32:23 10° NNE
